Location: *
(50.9167°S, 179.4000°W)
Time: 20:07:44
(UTC+00:00)

Cosmos 546 - Pass Details

Date: 03 March 2024
Orbit: 482 x 503 km, 50.6° (Epoch: 16 April)

Event Time Altitude Azimuth Distance (km) Brightness Sun altitude
Exits shadow 15:22:09 57° 277° (W) 589 4.6 -19.3°
Maximum altitude 15:22:52 79° 350° (N) 507 4.4 -19.2°
Drops below altitude 10° 15:26:41 10° 76° (ENE) 1,687 7.8 -18.7°
Sets 15:28:51 0° 77° (ENE) 2,567 8.8 -18.4°
